Location: Taupo
(38.6830°S, 176.0830°E)
Time: 00:49:37
(UTC+13:00)

CZ-2D R/B - Pass Details

Date: 24 January 2019
Orbit: 521 x 540 km, 97.4° (Epoch: 20 February)

Event Time Altitude Azimuth Distance (km) Brightness Sun altitude
Rises 21:22:28 0° 172° (S) 2,735 7.2 -8.5°
Reaches altitude 10° 21:24:37 10° 175° (S) 1,835 6.4 -8.9°
Maximum altitude 21:28:32 62° 255° (WSW) 624 3.9 -9.5°
Drops below altitude 10° 21:32:24 10° 336° (NNW) 1,809 5.9 -10.1°
Sets 21:34:31 0° 339° (NNW) 2,692 6.7 -10.5°
